Back to catalog

STARLINK-4374

AliveCommunicationsSSO
NORAD 53652·PAYLOAD·🇺🇸 United States

Launched Aug 31, 2022 from Vandenberg Space Force Base

Loading…

Next Passes (next 24 hours)

TLE

FreshSource: CelesTrak SupGP

Epoch: Sep 15, 2026, 01:19 UTC

1 53652C 22105E   26258.05534722  .00436280  00000+0  26113-1 0  2586
2 53652  97.2847 132.1697 0001681  85.5197 189.8687 15.10894506    17

Track STARLINK-4374 in real time with AllMySat

Download on the App Store